Wetterdaten: Samstag, 25.08.2012
Datum Zeit Temperatur Luftfeuchte Regen Wind Richtung Richtung Taupunkt Windchill Windben
25.08.2012 00:00 16,2 C 90 % 0,0 l/m 0,8 km/h (0 Bft) SO 135 14,6 C 16,2 C 0,0 km/h (0 Bft)
25.08.2012 00:05 16,1 C 90 % 0,0 l/m 0,2 km/h (0 Bft) S-SW 202 14,5 C 16,0 C 1,6 km/h (1 Bft)
25.08.2012 00:10 16,0 C 90 % 0,0 l/m 1,3 km/h (1 Bft) W-SW 247 14,4 C 15,8 C 5,6 km/h (1 Bft)
25.08.2012 00:15 16,0 C 91 % 0,0 l/m 1,8 km/h (1 Bft) S-SW 202 14,5 C 15,7 C 0,0 km/h (0 Bft)
25.08.2012 00:20 15,9 C 92 % 0,0 l/m 1,1 km/h (1 Bft) N 360 14,6 C 15,7 C 0,0 km/h (0 Bft)
25.08.2012 00:25 15,9 C 92 % 0,0 l/m 0,8 km/h (0 Bft) NO 45 14,6 C 15,6 C 0,0 km/h (0 Bft)
25.08.2012 00:30 15,8 C 92 % 0,0 l/m 0,6 km/h (0 Bft) O-SO 112 14,5 C 15,6 C 2,3 km/h (1 Bft)
25.08.2012 00:35 15,8 C 93 % 0,0 l/m 0,5 km/h (0 Bft) N-NO 22 14,7 C 15,5 C 1,6 km/h (1 Bft)
25.08.2012 00:40 15,8 C 93 % 0,7 l/m 0,3 km/h (0 Bft) N-NO 22 14,7 C 15,5 C 0,0 km/h (0 Bft)
25.08.2012 00:45 15,7 C 93 % 0,0 l/m 0,5 km/h (0 Bft) N 360 14,6 C 15,5 C 2,6 km/h (1 Bft)
25.08.2012 00:50 15,7 C 93 % 0,0 l/m 0,8 km/h (0 Bft) N 360 14,6 C 15,5 C 0,0 km/h (0 Bft)
25.08.2012 00:55 15,6 C 93 % 0,0 l/m 0,5 km/h (0 Bft) N-NO 22 14,5 C 15,5 C 0,0 km/h (0 Bft)
25.08.2012 01:00 15,5 C 93 % 0,0 l/m 0,0 km/h (0 Bft) N-NO 22 14,4 C 15,5 C 1,8 km/h (1 Bft)
25.08.2012 01:05 15,5 C 93 % 0,0 l/m 0,8 km/h (0 Bft) N 360 14,4 C 15,4 C 0,0 km/h (0 Bft)
25.08.2012 01:10 15,5 C 93 % 0,0 l/m 1,1 km/h (1 Bft) N 360 14,4 C 15,4 C 1,8 km/h (1 Bft)
25.08.2012 01:15 15,6 C 93 % 0,0 l/m 0,6 km/h (0 Bft) N-NO 22 14,5 C 15,4 C 0,0 km/h (0 Bft)
25.08.2012 01:20 15,6 C 93 % 0,0 l/m 0,6 km/h (0 Bft) N 360 14,5 C 15,4 C 2,7 km/h (1 Bft)
25.08.2012 01:25 15,6 C 94 % 0,0 l/m 0,5 km/h (0 Bft) N-NW 337 14,6 C 15,4 C 0,0 km/h (0 Bft)
25.08.2012 01:30 15,6 C 94 % 0,0 l/m 0,5 km/h (0 Bft) O-SO 112 14,6 C 15,4 C 0,0 km/h (0 Bft)
25.08.2012 01:35 15,5 C 94 % 0,0 l/m 0,0 km/h (0 Bft) N-NO 22 14,5 C 15,4 C 0,0 km/h (0 Bft)
25.08.2012 01:40 15,5 C 94 % 0,0 l/m 0,0 km/h (0 Bft) NO 45 14,5 C 15,4 C 0,0 km/h (0 Bft)
25.08.2012 01:45 15,5 C 94 % 0,0 l/m 0,0 km/h (0 Bft) O-SO 112 14,5 C 15,3 C 0,0 km/h (0 Bft)
25.08.2012 01:50 15,5 C 94 % 0,0 l/m 0,2 km/h (0 Bft) O 90 14,5 C 15,3 C 0,0 km/h (0 Bft)
25.08.2012 01:55 15,5 C 94 % 0,0 l/m 0,2 km/h (0 Bft) N 360 14,5 C 15,3 C 0,0 km/h (0 Bft)
25.08.2012 02:00 15,5 C 94 % 0,0 l/m 0,0 km/h (0 Bft) NO 45 14,5 C 15,3 C 0,0 km/h (0 Bft)
25.08.2012 02:05 15,5 C 94 % 0,0 l/m 0,2 km/h (0 Bft) N 360 14,5 C 15,3 C 2,1 km/h (1 Bft)
25.08.2012 02:10 15,4 C 94 % 0,0 l/m 1,1 km/h (1 Bft) N-NW 337 14,4 C 15,3 C 2,4 km/h (1 Bft)
25.08.2012 02:15 15,5 C 94 % 0,0 l/m 1,6 km/h (1 Bft) N 360 14,5 C 15,3 C 0,0 km/h (0 Bft)
25.08.2012 02:20 15,5 C 94 % 0,0 l/m 0,6 km/h (0 Bft) N 360 14,5 C 15,3 C 0,0 km/h (0 Bft)
25.08.2012 02:25 15,4 C 94 % 0,0 l/m 0,5 km/h (0 Bft) O 90 14,4 C 15,3 C 0,0 km/h (0 Bft)
25.08.2012 02:30 15,4 C 94 % 0,0 l/m 0,5 km/h (0 Bft) S-SO 157 14,4 C 15,2 C 0,0 km/h (0 Bft)
25.08.2012 02:35 15,4 C 94 % 0,0 l/m 0,2 km/h (0 Bft) O 90 14,4 C 15,2 C 0,0 km/h (0 Bft)
25.08.2012 02:40 15,3 C 94 % 0,7 l/m 0,2 km/h (0 Bft) N-NW 337 14,3 C 15,2 C 0,0 km/h (0 Bft)
25.08.2012 02:45 15,3 C 94 % 0,7 l/m 0,2 km/h (0 Bft) W-NW 292 14,3 C 15,2 C 0,0 km/h (0 Bft)
25.08.2012 02:50 15,2 C 94 % 0,0 l/m 0,2 km/h (0 Bft) W-NW 292 14,2 C 15,2 C 0,0 km/h (0 Bft)
25.08.2012 02:55 15,2 C 94 % 0,0 l/m 0,3 km/h (0 Bft) N 360 14,2 C 15,2 C 0,0 km/h (0 Bft)
25.08.2012 03:00 15,3 C 94 % 0,0 l/m 0,5 km/h (0 Bft) W 270 14,3 C 15,1 C 2,9 km/h (1 Bft)
25.08.2012 03:05 15,2 C 94 % 0,0 l/m 0,6 km/h (0 Bft) N 360 14,2 C 15,1 C 1,8 km/h (1 Bft)
25.08.2012 03:10 15,2 C 94 % 0,0 l/m 0,6 km/h (0 Bft) NW 315 14,2 C 15,1 C 0,0 km/h (0 Bft)
25.08.2012 03:15 15,2 C 94 % 0,0 l/m 0,5 km/h (0 Bft) N-NO 22 14,2 C 15,1 C 0,0 km/h (0 Bft)
25.08.2012 03:20 15,2 C 94 % 0,7 l/m 0,3 km/h (0 Bft) W-NW 292 14,2 C 15,1 C 0,0 km/h (0 Bft)
25.08.2012 03:25 15,2 C 94 % 0,0 l/m 0,3 km/h (0 Bft) N-NO 22 14,2 C 15,1 C 0,0 km/h (0 Bft)
25.08.2012 03:30 15,2 C 94 % 0,0 l/m 0,5 km/h (0 Bft) N-NW 337 14,2 C 15,1 C 0,0 km/h (0 Bft)
25.08.2012 03:35 15,2 C 94 % 0,7 l/m 0,3 km/h (0 Bft) NW 315 14,2 C 15,1 C 0,0 km/h (0 Bft)
25.08.2012 03:40 15,2 C 94 % 0,0 l/m 0,3 km/h (0 Bft) W-NW 292 14,2 C 15,1 C 1,9 km/h (1 Bft)
25.08.2012 03:45 15,2 C 94 % 0,0 l/m 1,0 km/h (0 Bft) N-NW 337 14,2 C 15,1 C 0,0 km/h (0 Bft)
25.08.2012 03:50 15,2 C 94 % 0,0 l/m 1,0 km/h (0 Bft) W-NW 292 14,2 C 15,1 C 1,6 km/h (1 Bft)
25.08.2012 03:55 15,2 C 94 % 0,0 l/m 0,2 km/h (0 Bft) N-NW 337 14,2 C 15,1 C 0,0 km/h (0 Bft)
25.08.2012 04:00 15,2 C 94 % 0,0 l/m 0,2 km/h (0 Bft) W-NW 292 14,2 C 15,0 C 0,0 km/h (0 Bft)
25.08.2012 04:05 15,2 C 94 % 0,7 l/m 0,0 km/h (0 Bft) NW 315 14,2 C 15,1 C 0,0 km/h (0 Bft)
25.08.2012 04:10 15,2 C 94 % 0,0 l/m 0,0 km/h (0 Bft) W 270 14,2 C 15,1 C 0,0 km/h (0 Bft)
25.08.2012 04:15 15,2 C 94 % 0,0 l/m 0,3 km/h (0 Bft) O-SO 112 14,2 C 15,1 C 2,7 km/h (1 Bft)
25.08.2012 04:20 15,2 C 94 % 0,0 l/m 0,6 km/h (0 Bft) NO 45 14,2 C 15,1 C 0,0 km/h (0 Bft)
25.08.2012 04:25 15,2 C 94 % 0,0 l/m 0,8 km/h (0 Bft) W-NW 292 14,2 C 15,2 C 2,7 km/h (1 Bft)
25.08.2012 04:30 15,3 C 94 % 0,0 l/m 0,5 km/h (0 Bft) W-NW 292 14,3 C 15,2 C 1,9 km/h (1 Bft)
25.08.2012 04:35 15,2 C 94 % 0,7 l/m 0,3 km/h (0 Bft) N-NW 337 14,2 C 15,2 C 0,0 km/h (0 Bft)
25.08.2012 04:40 15,2 C 94 % 0,0 l/m 0,2 km/h (0 Bft) S-SO 157 14,2 C 15,2 C 2,7 km/h (1 Bft)
25.08.2012 04:45 15,3 C 94 % 0,0 l/m 0,5 km/h (0 Bft) O 90 14,3 C 15,2 C 0,0 km/h (0 Bft)
25.08.2012 04:50 15,2 C 94 % 0,0 l/m 0,6 km/h (0 Bft) W-NW 292 14,2 C 15,2 C 2,1 km/h (1 Bft)
25.08.2012 04:55 15,2 C 94 % 0,0 l/m 1,0 km/h (0 Bft) W-SW 247 14,2 C 15,1 C 0,0 km/h (0 Bft)
25.08.2012 05:00 15,2 C 94 % 0,7 l/m 1,0 km/h (0 Bft) N-NO 22 14,2 C 15,1 C 0,0 km/h (0 Bft)
25.08.2012 05:05 15,2 C 94 % 0,0 l/m 0,0 km/h (0 Bft) N-NO 22 14,2 C 15,2 C 0,0 km/h (0 Bft)
25.08.2012 05:10 15,2 C 94 % 0,0 l/m 0,0 km/h (0 Bft) N-NW 337 14,2 C 15,1 C 0,0 km/h (0 Bft)
25.08.2012 05:15 15,2 C 94 % 0,0 l/m 0,5 km/h (0 Bft) O-SO 112 14,2 C 15,1 C 2,4 km/h (1 Bft)
25.08.2012 05:20 15,2 C 94 % 0,0 l/m 0,5 km/h (0 Bft) N 360 14,2 C 15,1 C 0,0 km/h (0 Bft)
25.08.2012 05:25 15,2 C 94 % 0,0 l/m 0,6 km/h (0 Bft) S 180 14,2 C 15,1 C 1,6 km/h (1 Bft)
25.08.2012 05:30 15,2 C 94 % 0,0 l/m 0,3 km/h (0 Bft) N 360 14,2 C 15,1 C 0,0 km/h (0 Bft)
25.08.2012 05:35 15,2 C 94 % 0,0 l/m 0,2 km/h (0 Bft) W-NW 292 14,2 C 15,1 C 0,0 km/h (0 Bft)
25.08.2012 05:40 15,2 C 94 % 0,7 l/m 0,5 km/h (0 Bft) NO 45 14,2 C 15,2 C 1,8 km/h (1 Bft)
25.08.2012 05:45 15,2 C 94 % 0,0 l/m 1,0 km/h (0 Bft) N 360 14,2 C 15,2 C 1,6 km/h (1 Bft)
25.08.2012 05:50 15,2 C 95 % 0,0 l/m 1,3 km/h (1 Bft) S 180 14,4 C 15,2 C 1,6 km/h (1 Bft)
25.08.2012 05:55 15,3 C 95 % 0,7 l/m 1,4 km/h (1 Bft) SO 135 14,5 C 15,2 C 3,4 km/h (1 Bft)
25.08.2012 06:00 15,3 C 95 % 0,0 l/m 1,9 km/h (1 Bft) S 180 14,5 C 15,2 C 2,7 km/h (1 Bft)
25.08.2012 06:05 15,3 C 95 % 0,7 l/m 4,0 km/h (1 Bft) SO 135 14,5 C 15,2 C 11,1 km/h (2 Bft)
25.08.2012 06:10 15,2 C 95 % 0,0 l/m 5,3 km/h (1 Bft) SO 135 14,4 C 15,2 C 9,0 km/h (2 Bft)
25.08.2012 06:15 15,2 C 95 % 0,0 l/m 5,1 km/h (1 Bft) N-NO 22 14,4 C 15,1 C 3,2 km/h (1 Bft)
25.08.2012 06:20 15,1 C 95 % 0,7 l/m 4,3 km/h (1 Bft) SO 135 14,3 C 15,1 C 2,3 km/h (1 Bft)
25.08.2012 06:25 15,1 C 95 % 0,0 l/m 3,1 km/h (1 Bft) O-SO 112 14,3 C 15,1 C 5,0 km/h (1 Bft)
25.08.2012 06:30 15,2 C 95 % 0,0 l/m 2,1 km/h (1 Bft) O-SO 112 14,4 C 15,1 C 0,0 km/h (0 Bft)
25.08.2012 06:35 15,2 C 95 % 0,0 l/m 1,0 km/h (0 Bft) O-SO 112 14,4 C 15,0 C 0,0 km/h (0 Bft)
25.08.2012 06:40 15,2 C 95 % 0,7 l/m 1,8 km/h (1 Bft) S 180 14,4 C 15,1 C 3,9 km/h (1 Bft)
25.08.2012 06:45 15,2 C 95 % 0,0 l/m 2,6 km/h (1 Bft) N-NO 22 14,4 C 15,1 C 0,0 km/h (0 Bft)
25.08.2012 06:50 15,2 C 95 % 0,0 l/m 2,1 km/h (1 Bft) N-NO 22 14,4 C 15,1 C 1,6 km/h (1 Bft)
25.08.2012 06:55 15,2 C 95 % 0,0 l/m 0,8 km/h (0 Bft) N 360 14,4 C 15,1 C 2,7 km/h (1 Bft)
25.08.2012 07:00 15,2 C 95 % 0,0 l/m 0,8 km/h (0 Bft) S 180 14,4 C 15,1 C 1,8 km/h (1 Bft)
25.08.2012 07:05 15,2 C 95 % 0,7 l/m 1,0 km/h (0 Bft) N 360 14,4 C 15,1 C 3,1 km/h (1 Bft)
25.08.2012 07:10 15,2 C 95 % 0,0 l/m 0,8 km/h (0 Bft) SO 135 14,4 C 15,2 C 1,6 km/h (1 Bft)
25.08.2012 07:15 15,2 C 95 % 0,0 l/m 1,0 km/h (0 Bft) NO 45 14,4 C 15,2 C 1,8 km/h (1 Bft)
25.08.2012 07:20 15,3 C 95 % 0,0 l/m 0,5 km/h (0 Bft) N-NO 22 14,5 C 15,2 C 0,0 km/h (0 Bft)
25.08.2012 07:25 15,3 C 95 % 0,0 l/m 1,1 km/h (1 Bft) O 90 14,5 C 15,3 C 6,0 km/h (2 Bft)
25.08.2012 07:30 15,3 C 95 % 0,0 l/m 1,4 km/h (1 Bft) N-NW 337 14,5 C 15,3 C 4,3 km/h (1 Bft)
25.08.2012 07:35 15,3 C 95 % 0,7 l/m 1,8 km/h (1 Bft) N-NW 337 14,5 C 15,3 C 1,6 km/h (1 Bft)
25.08.2012 07:40 15,4 C 95 % 0,0 l/m 1,3 km/h (1 Bft) N-NW 337 14,6 C 15,3 C 0,0 km/h (0 Bft)
25.08.2012 07:45 15,4 C 95 % 0,0 l/m 0,3 km/h (0 Bft) S 180 14,6 C 15,3 C 0,0 km/h (0 Bft)
25.08.2012 07:50 15,4 C 95 % 0,0 l/m 0,2 km/h (0 Bft) N 360 14,6 C 15,3 C 0,0 km/h (0 Bft)
25.08.2012 07:55 15,4 C 95 % 0,0 l/m 0,3 km/h (0 Bft) W-SW 247 14,6 C 15,4 C 2,3 km/h (1 Bft)
25.08.2012 08:00 15,5 C 95 % 0,0 l/m 0,5 km/h (0 Bft) S-SO 157 14,7 C 15,4 C 0,0 km/h (0 Bft)
25.08.2012 08:05 15,5 C 95 % 0,0 l/m 1,1 km/h (1 Bft) NW 315 14,7 C 15,5 C 2,9 km/h (1 Bft)
25.08.2012 08:10 15,5 C 95 % 0,7 l/m 1,8 km/h (1 Bft) W 270 14,7 C 15,5 C 1,6 km/h (1 Bft)
25.08.2012 08:15 15,6 C 95 % 0,0 l/m 1,1 km/h (1 Bft) S 180 14,8 C 15,5 C 1,6 km/h (1 Bft)
25.08.2012 08:20 15,7 C 95 % 0,0 l/m 0,2 km/h (0 Bft) S 180 14,9 C 15,6 C 0,0 km/h (0 Bft)
25.08.2012 08:25 15,8 C 95 % 0,0 l/m 0,0 km/h (0 Bft) NO 45 15,0 C 15,7 C 1,9 km/h (1 Bft)
25.08.2012 08:30 15,9 C 95 % 0,0 l/m 1,3 km/h (1 Bft) SO 135 15,1 C 15,8 C 3,5 km/h (1 Bft)
25.08.2012 08:35 15,9 C 95 % 0,0 l/m 1,8 km/h (1 Bft) N-NO 22 15,1 C 15,8 C 0,0 km/h (0 Bft)
25.08.2012 08:40 15,9 C 95 % 0,0 l/m 1,0 km/h (0 Bft) O 90 15,1 C 15,9 C 0,0 km/h (0 Bft)
25.08.2012 08:45 15,9 C 95 % 0,0 l/m 0,0 km/h (0 Bft) N-NO 22 15,1 C 15,9 C 0,0 km/h (0 Bft)
25.08.2012 08:50 16,1 C 94 % 0,0 l/m 0,2 km/h (0 Bft) S-SO 157 15,1 C 16,0 C 0,0 km/h (0 Bft)
25.08.2012 08:55 16,4 C 94 % 0,0 l/m 0,3 km/h (0 Bft) S-SW 202 15,4 C 16,3 C 0,0 km/h (0 Bft)
25.08.2012 09:00 16,6 C 94 % 0,0 l/m 0,2 km/h (0 Bft) SO 135 15,6 C 16,4 C 0,0 km/h (0 Bft)
25.08.2012 09:05 16,7 C 94 % 0,0 l/m 0,0 km/h (0 Bft) N-NW 337 15,7 C 16,7 C 0,0 km/h (0 Bft)
25.08.2012 09:10 16,7 C 94 % 0,7 l/m 0,2 km/h (0 Bft) S-SW 202 15,7 C 16,9 C 1,9 km/h (1 Bft)
25.08.2012 09:15 16,6 C 94 % 0,0 l/m 0,3 km/h (0 Bft) N 360 15,6 C 16,9 C 2,1 km/h (1 Bft)
25.08.2012 09:20 16,4 C 94 % 0,0 l/m 0,3 km/h (0 Bft) SO 135 15,4 C 16,9 C 0,0 km/h (0 Bft)
25.08.2012 09:25 16,5 C 94 % 0,0 l/m 0,0 km/h (0 Bft) N-NO 22 15,5 C 16,8 C 0,0 km/h (0 Bft)
25.08.2012 09:30 16,7 C 94 % 0,0 l/m 0,0 km/h (0 Bft) S 180 15,7 C 16,9 C 0,0 km/h (0 Bft)
25.08.2012 09:35 17,0 C 94 % 0,0 l/m 0,0 km/h (0 Bft) SO 135 16,0 C 17,1 C 0,0 km/h (0 Bft)
25.08.2012 09:40 16,9 C 94 % 0,0 l/m 0,0 km/h (0 Bft) S 180 15,9 C 17,1 C 0,0 km/h (0 Bft)
25.08.2012 09:45 17,0 C 94 % 0,0 l/m 0,0 km/h (0 Bft) O-SO 112 16,0 C 17,3 C 0,0 km/h (0 Bft)
25.08.2012 09:50 16,8 C 94 % 0,0 l/m 0,0 km/h (0 Bft) N 360 15,8 C 17,6 C 0,0 km/h (0 Bft)
25.08.2012 09:55 16,7 C 94 % 0,0 l/m 0,0 km/h (0 Bft) N 360 15,7 C 17,5 C 0,0 km/h (0 Bft)
25.08.2012 10:00 16,8 C 94 % 0,0 l/m 0,0 km/h (0 Bft) N-NO 22 15,8 C 17,5 C 0,0 km/h (0 Bft)
25.08.2012 10:05 16,8 C 94 % 0,0 l/m 0,2 km/h (0 Bft) N-NO 22 15,8 C 17,6 C 0,0 km/h (0 Bft)
25.08.2012 10:10 16,9 C 94 % 0,0 l/m 0,2 km/h (0 Bft) O 90 15,9 C 17,7 C 0,0 km/h (0 Bft)
25.08.2012 10:15 16,8 C 94 % 0,0 l/m 0,0 km/h (0 Bft) NO 45 15,8 C 17,7 C 0,0 km/h (0 Bft)
25.08.2012 10:20 16,7 C 94 % 0,0 l/m 0,0 km/h (0 Bft) NO 45 15,7 C 17,7 C 0,0 km/h (0 Bft)
25.08.2012 10:25 16,6 C 94 % 0,0 l/m 0,0 km/h (0 Bft) N-NO 22 15,6 C 17,7 C 2,4 km/h (1 Bft)
25.08.2012 10:30 16,6 C 94 % 0,0 l/m 0,2 km/h (0 Bft) W-NW 292 15,6 C 17,6 C 0,0 km/h (0 Bft)
25.08.2012 10:35 16,5 C 94 % 0,0 l/m 0,2 km/h (0 Bft) N 360 15,5 C 17,4 C 0,0 km/h (0 Bft)
25.08.2012 10:40 16,5 C 94 % 0,0 l/m 0,0 km/h (0 Bft) O-SO 112 15,5 C 17,3 C 0,0 km/h (0 Bft)
25.08.2012 10:45 16,5 C 94 % 0,0 l/m 0,2 km/h (0 Bft) N 360 15,5 C 17,1 C 0,0 km/h (0 Bft)
25.08.2012 10:50 16,5 C 94 % 0,0 l/m 0,2 km/h (0 Bft) N 360 15,5 C 17,0 C 0,0 km/h (0 Bft)
25.08.2012 10:55 16,6 C 93 % 0,0 l/m 0,0 km/h (0 Bft) N 360 15,5 C 17,1 C 0,0 km/h (0 Bft)
25.08.2012 11:00 16,8 C 94 % 0,0 l/m 0,2 km/h (0 Bft) NW 315 15,8 C 17,2 C 0,0 km/h (0 Bft)
25.08.2012 11:05 17,2 C 93 % 0,0 l/m 0,3 km/h (0 Bft) O-NO 67 16,1 C 17,6 C 1,9 km/h (1 Bft)
25.08.2012 11:10 17,4 C 93 % 0,0 l/m 0,3 km/h (0 Bft) SO 135 16,3 C 17,9 C 0,0 km/h (0 Bft)
25.08.2012 11:15 18,0 C 93 % 0,0 l/m 0,3 km/h (0 Bft) N-NW 337 16,8 C 18,7 C 3,4 km/h (1 Bft)
25.08.2012 11:20 18,1 C 93 % 0,0 l/m 0,5 km/h (0 Bft) SO 135 16,9 C 19,3 C 0,0 km/h (0 Bft)
25.08.2012 11:25 17,9 C 93 % 0,0 l/m 0,8 km/h (0 Bft) W-SW 247 16,8 C 19,5 C 0,0 km/h (0 Bft)
25.08.2012 11:30 17,9 C 93 % 0,0 l/m 0,6 km/h (0 Bft) N 360 16,8 C 19,5 C 0,0 km/h (0 Bft)
25.08.2012 11:35 18,0 C 93 % 0,0 l/m 0,5 km/h (0 Bft) S-SW 202 16,8 C 19,6 C 2,1 km/h (1 Bft)
25.08.2012 11:40 17,9 C 93 % 0,0 l/m 0,2 km/h (0 Bft) W 270 16,8 C 19,5 C 0,0 km/h (0 Bft)
25.08.2012 11:45 18,1 C 93 % 0,0 l/m 0,3 km/h (0 Bft) N 360 16,9 C 19,7 C 0,0 km/h (0 Bft)
25.08.2012 11:50 18,7 C 93 % 0,0 l/m 0,5 km/h (0 Bft) W 270 17,5 C 20,1 C 0,0 km/h (0 Bft)
25.08.2012 11:55 20,1 C 92 % 0,0 l/m 0,2 km/h (0 Bft) S 180 18,8 C 21,2 C 0,0 km/h (0 Bft)
25.08.2012 12:00 19,8 C 92 % 0,0 l/m 0,3 km/h (0 Bft) W-NW 292 18,5 C 22,8 C 3,1 km/h (1 Bft)
25.08.2012 12:05 19,4 C 92 % 0,0 l/m 0,3 km/h (0 Bft) N 360 18,1 C 22,8 C 0,0 km/h (0 Bft)
25.08.2012 12:10 19,4 C 92 % 0,0 l/m 0,5 km/h (0 Bft) O-SO 112 18,1 C 22,6 C 0,0 km/h (0 Bft)
25.08.2012 12:15 19,1 C 91 % 0,0 l/m 0,2 km/h (0 Bft) W-SW 247 17,6 C 22,4 C 0,0 km/h (0 Bft)
25.08.2012 12:20 19,0 C 91 % 0,0 l/m 0,2 km/h (0 Bft) O 90 17,5 C 22,2 C 0,0 km/h (0 Bft)
25.08.2012 12:25 19,5 C 91 % 0,0 l/m 0,6 km/h (0 Bft) N 360 18,0 C 22,4 C 3,7 km/h (1 Bft)
25.08.2012 12:30 19,5 C 90 % 0,0 l/m 0,8 km/h (0 Bft) N-NO 22 17,8 C 22,6 C 3,2 km/h (1 Bft)
25.08.2012 12:35 19,5 C 90 % 0,0 l/m 0,6 km/h (0 Bft) O-SO 112 17,8 C 22,5 C 0,0 km/h (0 Bft)
25.08.2012 12:40 19,4 C 90 % 0,0 l/m 0,2 km/h (0 Bft) SO 135 17,7 C 22,6 C 0,0 km/h (0 Bft)
25.08.2012 12:45 19,3 C 90 % 0,0 l/m 0,0 km/h (0 Bft) NO 45 17,6 C 22,7 C 0,0 km/h (0 Bft)
25.08.2012 12:50 19,7 C 90 % 0,0 l/m 0,0 km/h (0 Bft) N 360 18,0 C 22,8 C 0,0 km/h (0 Bft)
25.08.2012 12:55 20,6 C 89 % 0,0 l/m 0,2 km/h (0 Bft) N 360 18,7 C 23,7 C 2,1 km/h (1 Bft)
25.08.2012 13:00 20,8 C 89 % 0,0 l/m 0,2 km/h (0 Bft) N-NO 22 18,9 C 24,6 C 0,0 km/h (0 Bft)
25.08.2012 13:05 20,9 C 88 % 0,0 l/m 0,5 km/h (0 Bft) W-NW 292 18,8 C 25,4 C 0,0 km/h (0 Bft)
25.08.2012 13:10 21,2 C 87 % 0,0 l/m 0,6 km/h (0 Bft) SO 135 18,9 C 25,4 C 1,6 km/h (1 Bft)
25.08.2012 13:15 21,0 C 87 % 0,0 l/m 0,8 km/h (0 Bft) SO 135 18,7 C 25,7 C 2,1 km/h (1 Bft)
25.08.2012 13:20 21,7 C 87 % 0,0 l/m 0,8 km/h (0 Bft) O-SO 112 19,4 C 25,7 C 0,0 km/h (0 Bft)
25.08.2012 13:25 21,2 C 86 % 0,0 l/m 0,5 km/h (0 Bft) O-SO 112 18,8 C 26,5 C 2,7 km/h (1 Bft)
25.08.2012 13:30 21,3 C 86 % 0,0 l/m 0,3 km/h (0 Bft) O-SO 112 18,9 C 26,6 C 0,0 km/h (0 Bft)
25.08.2012 13:35 21,6 C 86 % 0,0 l/m 1,0 km/h (0 Bft) NO 45 19,2 C 26,8 C 4,0 km/h (1 Bft)
25.08.2012 13:40 22,1 C 85 % 0,0 l/m 1,0 km/h (0 Bft) S 180 19,5 C 26,6 C 0,0 km/h (0 Bft)
25.08.2012 13:45 22,5 C 85 % 0,0 l/m 1,6 km/h (1 Bft) S 180 19,8 C 27,0 C 4,5 km/h (1 Bft)
25.08.2012 13:50 22,9 C 84 % 0,0 l/m 2,4 km/h (1 Bft) SO 135 20,0 C 27,3 C 1,8 km/h (1 Bft)
25.08.2012 13:55 23,1 C 84 % 0,0 l/m 2,3 km/h (1 Bft) S 180 20,2 C 28,1 C 0,0 km/h (0 Bft)
25.08.2012 14:00 22,9 C 86 % 0,0 l/m 2,3 km/h (1 Bft) SO 135 20,4 C 27,6 C 3,7 km/h (1 Bft)
25.08.2012 14:05 23,9 C 85 % 0,0 l/m 2,7 km/h (1 Bft) O-SO 112 21,2 C 27,6 C 3,1 km/h (1 Bft)
25.08.2012 14:10 24,5 C 84 % 0,0 l/m 2,1 km/h (1 Bft) O-SO 112 21,6 C 28,9 C 3,7 km/h (1 Bft)
25.08.2012 14:15 24,0 C 84 % 0,0 l/m 1,8 km/h (1 Bft) O 90 21,1 C 29,2 C 0,0 km/h (0 Bft)
25.08.2012 14:20 24,3 C 85 % 0,0 l/m 1,8 km/h (1 Bft) O 90 21,6 C 29,6 C 4,0 km/h (1 Bft)
25.08.2012 14:25 24,7 C 84 % 0,0 l/m 2,9 km/h (1 Bft) O-SO 112 21,8 C 29,1 C 3,9 km/h (1 Bft)
25.08.2012 14:30 24,6 C 83 % 0,0 l/m 3,2 km/h (1 Bft) S-SO 157 21,5 C 29,0 C 2,7 km/h (1 Bft)
25.08.2012 14:35 24,3 C 82 % 0,0 l/m 1,8 km/h (1 Bft) SO 135 21,0 C 29,2 C 1,6 km/h (1 Bft)
25.08.2012 14:40 25,0 C 81 % 0,0 l/m 2,6 km/h (1 Bft) S-SO 157 21,5 C 28,9 C 0,0 km/h (0 Bft)
25.08.2012 14:45 25,0 C 80 % 0,0 l/m 2,1 km/h (1 Bft) N 360 21,3 C 29,7 C 2,7 km/h (1 Bft)
25.08.2012 14:50 25,2 C 80 % 0,0 l/m 1,6 km/h (1 Bft) S-SW 202 21,5 C 29,3 C 4,2 km/h (1 Bft)
25.08.2012 14:55 24,9 C 76 % 0,0 l/m 3,2 km/h (1 Bft) SO 135 20,4 C 29,0 C 6,1 km/h (2 Bft)
25.08.2012 15:00 24,7 C 77 % 0,0 l/m 4,0 km/h (1 Bft) O-SO 112 20,4 C 28,3 C 4,8 km/h (1 Bft)
25.08.2012 15:05 23,9 C 76 % 0,0 l/m 5,3 km/h (1 Bft) S-SO 157 19,4 C 27,7 C 11,7 km/h (2 Bft)
25.08.2012 15:10 24,3 C 80 % 0,0 l/m 5,1 km/h (1 Bft) O-SO 112 20,6 C 26,7 C 3,7 km/h (1 Bft)
25.08.2012 15:15 24,7 C 77 % 0,0 l/m 5,0 km/h (1 Bft) SO 135 20,4 C 26,8 C 6,0 km/h (2 Bft)
25.08.2012 15:20 25,3 C 73 % 0,0 l/m 5,3 km/h (1 Bft) S 180 20,1 C 27,1 C 9,7 km/h (2 Bft)
25.08.2012 15:25 23,7 C 79 % 0,0 l/m 5,0 km/h (1 Bft) SO 135 19,8 C 26,6 C 5,0 km/h (1 Bft)
25.08.2012 15:30 23,2 C 81 % 0,0 l/m 4,3 km/h (1 Bft) O 90 19,8 C 25,6 C 3,2 km/h (1 Bft)
25.08.2012 15:35 22,6 C 81 % 0,0 l/m 3,9 km/h (1 Bft) O 90 19,2 C 24,7 C 5,1 km/h (1 Bft)
25.08.2012 15:40 23,8 C 81 % 0,0 l/m 3,5 km/h (1 Bft) W-SW 247 20,3 C 25,1 C 3,4 km/h (1 Bft)
25.08.2012 15:45 25,2 C 72 % 0,0 l/m 4,2 km/h (1 Bft) SO 135 19,8 C 26,5 C 7,2 km/h (2 Bft)
25.08.2012 15:50 25,2 C 69 % 0,0 l/m 4,3 km/h (1 Bft) SO 135 19,1 C 27,1 C 2,4 km/h (1 Bft)
25.08.2012 15:55 24,0 C 70 % 0,0 l/m 3,9 km/h (1 Bft) O-NO 67 18,2 C 26,5 C 1,8 km/h (1 Bft)
25.08.2012 16:00 23,5 C 67 % 0,0 l/m 2,7 km/h (1 Bft) SO 135 17,0 C 26,1 C 3,4 km/h (1 Bft)
25.08.2012 16:05 23,2 C 63 % 0,0 l/m 2,9 km/h (1 Bft) S 180 15,8 C 25,2 C 5,1 km/h (1 Bft)
25.08.2012 16:10 23,1 C 66 % 0,0 l/m 4,2 km/h (1 Bft) O-SO 112 16,4 C 24,5 C 5,3 km/h (1 Bft)
25.08.2012 16:15 22,5 C 68 % 0,0 l/m 2,1 km/h (1 Bft) N 360 16,3 C 24,2 C 0,0 km/h (0 Bft)
25.08.2012 16:20 22,4 C 72 % 0,0 l/m 1,1 km/h (1 Bft) W-NW 292 17,1 C 24,4 C 0,0 km/h (0 Bft)
25.08.2012 16:25 23,7 C 70 % 0,0 l/m 0,5 km/h (0 Bft) W 270 17,9 C 25,3 C 2,4 km/h (1 Bft)
25.08.2012 16:30 24,0 C 58 % 0,0 l/m 1,6 km/h (1 Bft) SO 135 15,2 C 26,1 C 7,1 km/h (2 Bft)
25.08.2012 16:35 23,2 C 61 % 0,0 l/m 4,3 km/h (1 Bft) S 180 15,3 C 25,7 C 5,3 km/h (1 Bft)
25.08.2012 16:40 23,1 C 58 % 0,0 l/m 6,1 km/h (2 Bft) O-SO 112 14,4 C 25,0 C 4,5 km/h (1 Bft)
25.08.2012 16:45 23,1 C 58 % 0,0 l/m 6,0 km/h (2 Bft) S-SO 157 14,4 C 25,7 C 12,4 km/h (3 Bft)
25.08.2012 16:50 22,5 C 61 % 0,0 l/m 5,8 km/h (2 Bft) S-SO 157 14,6 C 25,4 C 8,7 km/h (2 Bft)
25.08.2012 16:55 22,1 C 64 % 0,0 l/m 5,6 km/h (1 Bft) SO 135 15,0 C 24,2 C 13,5 km/h (3 Bft)
25.08.2012 17:00 22,3 C 64 % 0,0 l/m 3,7 km/h (1 Bft) O-SO 112 15,2 C 23,8 C 4,2 km/h (1 Bft)
25.08.2012 17:05 23,0 C 63 % 0,0 l/m 2,7 km/h (1 Bft) O-SO 112 15,6 C 25,0 C 4,7 km/h (1 Bft)
25.08.2012 17:10 22,5 C 64 % 0,0 l/m 3,1 km/h (1 Bft) N-NO 22 15,3 C 25,1 C 2,3 km/h (1 Bft)
25.08.2012 17:15 21,8 C 66 % 0,0 l/m 1,8 km/h (1 Bft) S 180 15,2 C 24,5 C 0,0 km/h (0 Bft)
25.08.2012 17:20 21,1 C 69 % 0,0 l/m 0,5 km/h (0 Bft) N-NO 22 15,2 C 23,8 C 0,0 km/h (0 Bft)
25.08.2012 17:25 20,6 C 71 % 0,0 l/m 0,2 km/h (0 Bft) NO 45 15,2 C 22,8 C 0,0 km/h (0 Bft)
25.08.2012 17:30 20,4 C 72 % 0,0 l/m 0,0 km/h (0 Bft) NO 45 15,2 C 22,5 C 0,0 km/h (0 Bft)
25.08.2012 17:35 20,1 C 76 % 0,0 l/m 0,5 km/h (0 Bft) N-NW 337 15,7 C 21,9 C 1,8 km/h (1 Bft)
25.08.2012 17:40 20,0 C 77 % 0,0 l/m 0,6 km/h (0 Bft) NO 45 15,8 C 21,4 C 0,0 km/h (0 Bft)
25.08.2012 17:45 19,8 C 77 % 0,0 l/m 0,6 km/h (0 Bft) N 360 15,6 C 20,7 C 0,0 km/h (0 Bft)
25.08.2012 17:50 19,4 C 80 % 0,0 l/m 0,5 km/h (0 Bft) N 360 15,9 C 20,4 C 0,0 km/h (0 Bft)
25.08.2012 17:55 19,3 C 82 % 0,0 l/m 0,5 km/h (0 Bft) N-NO 22 16,1 C 20,0 C 0,0 km/h (0 Bft)
25.08.2012 18:00 19,2 C 81 % 0,0 l/m 0,3 km/h (0 Bft) NO 45 15,9 C 19,8 C 1,8 km/h (1 Bft)
25.08.2012 18:05 19,1 C 81 % 0,0 l/m 0,6 km/h (0 Bft) NO 45 15,8 C 19,6 C 0,0 km/h (0 Bft)
25.08.2012 18:10 19,1 C 81 % 0,0 l/m 0,6 km/h (0 Bft) N-NO 22 15,8 C 19,6 C 1,9 km/h (1 Bft)
25.08.2012 18:15 19,0 C 81 % 0,0 l/m 0,2 km/h (0 Bft) NO 45 15,7 C 19,4 C 0,0 km/h (0 Bft)
25.08.2012 18:20 18,8 C 82 % 0,0 l/m 0,2 km/h (0 Bft) N 360 15,7 C 19,4 C 0,0 km/h (0 Bft)
25.08.2012 18:25 18,6 C 83 % 0,0 l/m 0,2 km/h (0 Bft) O 90 15,7 C 18,9 C 0,0 km/h (0 Bft)
25.08.2012 18:30 18,5 C 83 % 0,0 l/m 0,2 km/h (0 Bft) O 90 15,6 C 18,6 C 0,0 km/h (0 Bft)
25.08.2012 18:35 18,4 C 84 % 0,0 l/m 0,2 km/h (0 Bft) SW 225 15,6 C 18,3 C 0,0 km/h (0 Bft)
25.08.2012 18:40 18,3 C 85 % 0,0 l/m 0,2 km/h (0 Bft) N-NO 22 15,7 C 18,1 C 0,0 km/h (0 Bft)
25.08.2012 18:45 18,2 C 85 % 0,0 l/m 0,0 km/h (0 Bft) NO 45 15,6 C 18,0 C 0,0 km/h (0 Bft)
25.08.2012 18:50 18,1 C 85 % 0,0 l/m 0,2 km/h (0 Bft) NO 45 15,5 C 17,9 C 0,0 km/h (0 Bft)
25.08.2012 18:55 17,6 C 88 % 0,7 l/m 0,3 km/h (0 Bft) N 360 15,6 C 17,6 C 0,0 km/h (0 Bft)
25.08.2012 19:00 17,5 C 88 % 0,0 l/m 0,2 km/h (0 Bft) N-NO 22 15,5 C 17,5 C 0,0 km/h (0 Bft)
25.08.2012 19:05 17,5 C 89 % 0,7 l/m 0,0 km/h (0 Bft) N-NW 337 15,7 C 17,5 C 1,8 km/h (1 Bft)
25.08.2012 19:10 17,4 C 90 % 0,0 l/m 0,3 km/h (0 Bft) W-NW 292 15,7 C 17,4 C 2,4 km/h (1 Bft)
25.08.2012 19:15 17,3 C 90 % 0,7 l/m 1,0 km/h (0 Bft) N 360 15,6 C 17,3 C 2,3 km/h (1 Bft)
25.08.2012 19:20 17,3 C 90 % 0,0 l/m 2,6 km/h (1 Bft) SO 135 15,6 C 17,2 C 9,7 km/h (2 Bft)
25.08.2012 19:25 15,7 C 91 % 4,1 l/m 7,7 km/h (2 Bft) S 180 14,2 C 16,1 C 21,6 km/h (4 Bft)
25.08.2012 19:30 14,9 C 91 % 7,6 l/m 9,3 km/h (2 Bft) O-SO 112 13,4 C 14,1 C 3,7 km/h (1 Bft)
25.08.2012 19:35 14,6 C 91 % 0,0 l/m 5,0 km/h (1 Bft) N 360 13,1 C 14,9 C 2,3 km/h (1 Bft)
25.08.2012 19:40 14,6 C 91 % 0,0 l/m 2,3 km/h (1 Bft) NO 45 13,1 C 14,7 C 2,4 km/h (1 Bft)
25.08.2012 19:45 14,7 C 92 % 0,0 l/m 0,5 km/h (0 Bft) N 360 13,4 C 14,6 C 0,0 km/h (0 Bft)
25.08.2012 19:50 14,6 C 92 % 0,0 l/m 0,5 km/h (0 Bft) N 360 13,3 C 14,6 C 2,4 km/h (1 Bft)
25.08.2012 19:55 14,7 C 92 % 0,0 l/m 0,3 km/h (0 Bft) N 360 13,4 C 14,6 C 0,0 km/h (0 Bft)
25.08.2012 20:00 14,7 C 92 % 0,0 l/m 0,2 km/h (0 Bft) NO 45 13,4 C 14,7 C 0,0 km/h (0 Bft)
25.08.2012 20:05 14,7 C 93 % 0,7 l/m 0,5 km/h (0 Bft) N 360 13,6 C 14,6 C 0,0 km/h (0 Bft)
25.08.2012 20:10 14,7 C 93 % 0,7 l/m 0,8 km/h (0 Bft) N-NO 22 13,6 C 14,6 C 0,0 km/h (0 Bft)
25.08.2012 20:15 14,7 C 93 % 0,0 l/m 0,6 km/h (0 Bft) NO 45 13,6 C 14,7 C 0,0 km/h (0 Bft)
25.08.2012 20:20 14,8 C 93 % 0,7 l/m 0,6 km/h (0 Bft) O-SO 112 13,7 C 14,8 C 2,3 km/h (1 Bft)
25.08.2012 20:25 14,9 C 93 % 0,7 l/m 1,1 km/h (1 Bft) N-NO 22 13,8 C 14,8 C 0,0 km/h (0 Bft)
25.08.2012 20:30 14,8 C 93 % 0,7 l/m 1,3 km/h (1 Bft) N-NO 22 13,7 C 14,8 C 2,1 km/h (1 Bft)
25.08.2012 20:35 14,8 C 93 % 0,7 l/m 1,0 km/h (0 Bft) N-NW 337 13,7 C 14,8 C 0,0 km/h (0 Bft)
25.08.2012 20:40 14,8 C 93 % 0,0 l/m 0,5 km/h (0 Bft) N-NW 337 13,7 C 14,8 C 0,0 km/h (0 Bft)
25.08.2012 20:45 14,9 C 94 % 0,0 l/m 0,2 km/h (0 Bft) SO 135 13,9 C 14,9 C 0,0 km/h (0 Bft)
25.08.2012 20:50 14,9 C 94 % 0,0 l/m 0,2 km/h (0 Bft) N-NW 337 13,9 C 14,9 C 1,6 km/h (1 Bft)
25.08.2012 20:55 14,9 C 94 % 0,0 l/m 0,6 km/h (0 Bft) W-SW 247 13,9 C 14,9 C 0,0 km/h (0 Bft)
25.08.2012 21:00 14,9 C 94 % 0,0 l/m 0,6 km/h (0 Bft) W-SW 247 13,9 C 14,9 C 0,0 km/h (0 Bft)
25.08.2012 21:05 14,9 C 94 % 0,0 l/m 0,6 km/h (0 Bft) W-NW 292 13,9 C 14,8 C 3,4 km/h (1 Bft)
25.08.2012 21:10 14,9 C 94 % 0,0 l/m 1,0 km/h (0 Bft) N 360 13,9 C 14,8 C 2,1 km/h (1 Bft)
25.08.2012 21:15 14,9 C 94 % 0,0 l/m 1,1 km/h (1 Bft) N-NO 22 13,9 C 14,8 C 0,0 km/h (0 Bft)
25.08.2012 21:20 14,9 C 94 % 0,0 l/m 0,6 km/h (0 Bft) N 360 13,9 C 14,8 C 0,0 km/h (0 Bft)
25.08.2012 21:25 14,9 C 94 % 0,0 l/m 0,0 km/h (0 Bft) N-NO 22 13,9 C 14,8 C 0,0 km/h (0 Bft)
25.08.2012 21:30 14,9 C 94 % 0,7 l/m 0,6 km/h (0 Bft) W-SW 247 13,9 C 14,8 C 3,2 km/h (1 Bft)
25.08.2012 21:35 14,8 C 94 % 0,0 l/m 2,3 km/h (1 Bft) N-NO 22 13,8 C 14,8 C 4,8 km/h (1 Bft)
25.08.2012 21:40 14,8 C 94 % 0,0 l/m 2,1 km/h (1 Bft) N-NO 22 13,8 C 14,8 C 0,0 km/h (0 Bft)
25.08.2012 21:45 14,8 C 94 % 0,7 l/m 0,6 km/h (0 Bft) SO 135 13,8 C 14,8 C 0,0 km/h (0 Bft)
25.08.2012 21:50 14,8 C 94 % 0,0 l/m 0,5 km/h (0 Bft) O-SO 112 13,8 C 14,8 C 1,8 km/h (1 Bft)
25.08.2012 21:55 14,8 C 94 % 0,0 l/m 0,8 km/h (0 Bft) NO 45 13,8 C 14,8 C 0,0 km/h (0 Bft)
25.08.2012 22:00 14,8 C 94 % 0,7 l/m 0,6 km/h (0 Bft) O-NO 67 13,8 C 14,8 C 0,0 km/h (0 Bft)
25.08.2012 22:05 14,8 C 94 % 0,7 l/m 1,0 km/h (0 Bft) SO 135 13,8 C 14,8 C 2,3 km/h (1 Bft)
25.08.2012 22:10 14,8 C 94 % 0,0 l/m 1,8 km/h (1 Bft) S 180 13,8 C 14,8 C 4,0 km/h (1 Bft)
25.08.2012 22:15 14,7 C 94 % 0,7 l/m 2,9 km/h (1 Bft) SO 135 13,7 C 14,8 C 4,5 km/h (1 Bft)
25.08.2012 22:20 14,7 C 94 % 0,0 l/m 2,9 km/h (1 Bft) NO 45 13,7 C 14,8 C 0,0 km/h (0 Bft)
25.08.2012 22:25 14,8 C 94 % 0,7 l/m 1,0 km/h (0 Bft) O-SO 112 13,8 C 14,8 C 3,7 km/h (1 Bft)
25.08.2012 22:30 14,8 C 94 % 0,7 l/m 1,1 km/h (1 Bft) SO 135 13,8 C 14,8 C 2,4 km/h (1 Bft)
25.08.2012 22:35 14,8 C 94 % 0,7 l/m 3,2 km/h (1 Bft) O-NO 67 13,8 C 14,8 C 2,1 km/h (1 Bft)
25.08.2012 22:40 14,8 C 94 % 0,0 l/m 4,0 km/h (1 Bft) S 180 13,8 C 14,8 C 5,3 km/h (1 Bft)
25.08.2012 22:45 14,8 C 94 % 0,7 l/m 6,3 km/h (2 Bft) O-SO 112 13,8 C 14,8 C 9,2 km/h (2 Bft)
25.08.2012 22:50 14,7 C 94 % 0,7 l/m 7,6 km/h (2 Bft) SO 135 13,7 C 14,0 C 9,8 km/h (2 Bft)
25.08.2012 22:55 14,6 C 95 % 0,7 l/m 8,4 km/h (2 Bft) O-NO 67 13,8 C 13,1 C 24,3 km/h (4 Bft)
25.08.2012 23:00 14,6 C 95 % 0,0 l/m 9,3 km/h (2 Bft) W-NW 292 13,8 C 12,6 C 15,0 km/h (3 Bft)
25.08.2012 23:05 14,0 C 94 % 0,7 l/m 12,7 km/h (3 Bft) SO 135 13,0 C 10,4 C 31,4 km/h (5 Bft)
25.08.2012 23:10 13,5 C 94 % 1,4 l/m 15,4 km/h (3 Bft) SO 135 12,6 C 8,0 C 19,0 km/h (3 Bft)
25.08.2012 23:15 12,9 C 95 % 0,7 l/m 14,3 km/h (3 Bft) O-SO 112 12,1 C 7,6 C 33,8 km/h (5 Bft)
25.08.2012 23:20 12,7 C 95 % 0,0 l/m 12,6 km/h (3 Bft) S-SO 157 11,9 C 8,1 C 10,9 km/h (2 Bft)
25.08.2012 23:25 12,5 C 95 % 0,7 l/m 10,1 km/h (2 Bft) O 90 11,7 C 9,3 C 10,6 km/h (2 Bft)
25.08.2012 23:30 12,3 C 95 % 0,0 l/m 9,8 km/h (2 Bft) S-SO 157 11,5 C 9,3 C 8,2 km/h (2 Bft)
25.08.2012 23:35 12,2 C 95 % 0,7 l/m 8,2 km/h (2 Bft) SO 135 11,4 C 10,2 C 9,5 km/h (2 Bft)
25.08.2012 23:40 12,0 C 95 % 0,0 l/m 8,4 km/h (2 Bft) O-SO 112 11,2 C 9,9 C 7,4 km/h (2 Bft)
25.08.2012 23:45 12,0 C 95 % 0,0 l/m 9,7 km/h (2 Bft) SO 135 11,2 C 8,6 C 8,5 km/h (2 Bft)
25.08.2012 23:50 11,9 C 95 % 0,7 l/m 9,5 km/h (2 Bft) SO 135 11,1 C 8,8 C 10,3 km/h (2 Bft)
25.08.2012 23:55 11,9 C 95 % 0,0 l/m 6,9 km/h (2 Bft) S-SO 157 11,1 C 10,9 C 6,1 km/h (2 Bft)
_ Min-Zeit 23:55 16:45 - 21:25 - - 23:55 23:15 22:20
Minimum _ 11,9 C 58 % - 0,0 km/h (0 Bft) - - 11,1 C 7,6 C 0,0 km/h (0 Bft)
_ Max-Zeit 15:20 23:55 19:30 23:10 - - 14:25 14:45 23:15
Maximum _ 25,3 C 95 % 7,6 l/m 15,4 km/h
SO (3 Bft)
- - 21,8 C 29,7 C 33,8 km/h
O-SO (5 Bft)
Durchschnitt _ 17,3 C 90 % #41,9 l/m 1,6 km/h (1 Bft) SO - 15,5 C 18,0 C 2,3 km/h (1 Bft)